Regional Weather Roundup
Issued by NWS Jackson, KY

Home | Current Version | Previous Version | Graphics & Text | Print | Product List | Glossary On
Versions: 1 2 3 4 5 6 7 8 9 10 11 12 13 14 15 16 17 18 19 20 21 22 23 24 25 26 27 28 29 30 31 32 33 34 35 36 37 38 39 40 41 42 43 44 45 46 47 48 49 50
427
ASUS43 KJKL 130810
RWRJKL

EAST KENTUCKY HOURLY WEATHER ROUNDUP
NATIONAL WEATHER SERVICE JACKSON KY
300 AM EST SAT FEB 13 2016

NOTE: "FAIR" INDICATES FEW OR NO CLOUDS BELOW 12,000 FEET WITH
NO SIGNIFICANT WEATHER AND/OR OBSTRUCTIONS TO VISIBILITY.

* THESE REPORTS ARE NOT UNDER NWS QUALITY CONTROL AND MAY NOT
  REPORT WEATHER SUCH AS PRECIPITATION AND FOG.

KYZ079-080-083-085-087-088-110-112-115-119-120-130900
...EASTERN KENTUCKY...

CITY           SKY/WX    TMP DP  RH WIND       PRES   REMARKS
JACKSON        LGT SNOW  19  11  70 NW9G21    30.27R WCI   8
LONDON         MOCLDY    21   8  57 NW7       30.30S WCI  12
SOMERSET*      CLOUDY    23  12  63 NW9       30.36R WCI  13
MONTICELLO*    FLURRIES  24  15  68 NW16      30.36R WCI  11
WILLIAMSBURG*  PTSUNNY   23  14  68 NW7       30.31S WCI  15
MIDDLESBORO*   CLOUDY    25  13  60 NW10G26   30.29S WCI  15
HARLAN APT*    PTSUNNY   23  10  58 W9        30.24S WCI  13
BIG SANDY*     CLOUDY    20   8  57 NW6       30.26R WCI  13
MOREHEAD APT*  CLOUDY    18   9  68 NW6G14    30.34R WCI   9
$$

KYZ035-036-041-042-044-050-067-078-099-130900
...CENTRAL KENTUCKY...

CITY           SKY/WX    TMP DP  RH WIND       PRES   REMARKS
MT STERLING*   CLOUDY    19   9  63 N8        30.34R WCI   9
DANVILLE*      MOCLDY    23  10  58 NW8       30.35R WCI  14
RICHMOND*      CLOUDY    21  14  73 N10G16    30.33R WCI  10
LEXINGTON      CLOUDY    19   4  51 NW13G22   30.35R WCI   6
FRANKFORT      CLOUDY    20   4  50 NW10G20   30.36R WCI   9
$$

KYZ091>093-OHZ055-061-077-WVZ005-015-034-035-042-130900
...SOUTHERN OHIO/WEST VIRGINIA...

CITY           SKY/WX    TMP DP  RH WIND       PRES   REMARKS
COVINGTON      PTCLDY    16   6  65 NW13      30.35R WCI   2
COLUMBUS       LGT SNOW  12   3  67 NW15G25   30.28R WCI  -4
DAYTON         FLURRIES  13   7  77 NW18      30.32R WCI  -4
WILMINGTON     MOCLDY    12   4  70 NW14      30.30R WCI  -3
HUNTINGTON     MOCLDY    18   7  62 NW8G17    30.29R WCI   8
CHARLESTON     MOCLDY    18   2  49 NW13G24   30.25R WCI   5
PINEVILLE*       N/A     19   7  59 MISG      30.21R
BECKLEY        CLOUDY    13   8  81 N14       30.08R HAZE    WCI  -2
$$

VAZ002-007-008-TNZ017-027-036-066-071-130900
...SOUTHWEST VIRGINIA/EAST TENNESSEE...

CITY           SKY/WX    TMP DP  RH WIND       PRES   REMARKS
BRISTOL        CLOUDY    26  14  60 NW14G22   30.20R WCI  14
KNOXVILLE      CLOUDY    30  17  58 NW10      30.28R WCI  21
OAK RIDGE      CLOUDY    30  16  56 VRB7      30.30S WCI  23
CROSSVILLE     CLEAR     21  11  65 NW13      30.28R WCI   9
NASHVILLE      PTCLDY    25  10  53 N12       30.44R WCI  14
$$

...KEY TO REMARKS...
VSB - VISIBILITY IN MILES
WCI - WIND CHILL INDEX
HX  - HEAT INDEX

$$




USA.gov is the U.S. government's official web portal to all federal, state and local government web resources and services.